User: anonymous   Login
Location: Caltech
(34.1382°N, 118.1253°W)
Time: 18:53:03
(UTC-07:00)
Language:

Cosmos 676 Rocket - Orbit

View from above orbital plane
View from above orbital plane
View from above satellite
View from above satellite

Ground track
Ground track

The orbit data is extracted from the following two-line orbital elements,

1 07434U 74071B   16240.91636806  .00000084  00000-0  37319-4 0  9998
2 07434  74.0473  32.5843 0020572  13.0308 347.1372 14.36585301194592
Epoch (UTC): 27 August 2016 21:59:34
Eccentricity: 0.0020572
inclination: 74.0473°
perigee height: 755 km
apogee height: 784 km
right ascension of ascending node: 32.5843°
argument of perigee: 13.0308°
revolutions per day: 14.36585301
mean anomaly at epoch: 347.1372°
orbit number at epoch: 19459

The dashed part of the orbit path shows where the satellite is in the earth's shadow,  

DLR